Torna al catalogo

STARLINK-5838

AttivoComunicazioniVLEO
NORAD 57073·PAYLOAD·🇺🇸 United States

Lanciato Jun 22, 2023 da Vandenberg Space Force Base

Loading…

Prossimi Passaggi (prossime 24 ore)

TLE

AggiornatoSource: CelesTrak SupGP

Epoca: Sep 14, 2026, 20:49 UTC

1 57073C 23088AB  26257.86784722 -.00002503  00000+0 -90689-4 0  2573
2 57073  43.0010 107.8748 0000990 251.7665  21.1658 15.27570475    14

Traccia STARLINK-5838 in tempo reale con AllMySat

Download on the App Store